This is the latest recevied weather packets stored in our database for station/object KJ7BRE-1. If no packets are shown the sender has not sent any weather packets the latest 10 day(s).
| Time | Temp. | Humidity | Pressure | Rain* | Wind** | Luminosity | Snow |
|---|---|---|---|---|---|---|---|
| 1778205444 | 21.11° C | 40% | 1009.5 hPa | 0 mm | - | - | - |
| 1778205143 | 21.11° C | 40% | 1009.8 hPa | 0 mm | - | - | - |
| 1778204842 | 21.11° C | 40% | 1009.8 hPa | 0 mm | - | - | - |
| 1778204541 | 21.67° C | 39% | 1009.8 hPa | 0 mm | - | - | - |
| 1778203938 | 21.11° C | 39% | 1009.8 hPa | 0 mm | - | - | - |
| 1778203637 | 21.67° C | 38% | 1010.2 hPa | 0 mm | - | - | - |
| 1778203336 | 21.67° C | 40% | 1009.8 hPa | 0 mm | - | - | - |
| 1778203034 | 21.67° C | 39% | 1010.2 hPa | 0 mm | - | - | - |
| 1778202733 | 21.67° C | 40% | 1009.8 hPa | 0 mm | - | - | - |
| 1778202432 | 21.67° C | 39% | 1010.2 hPa | 0 mm | - | - | - |
| 1778202131 | 21.11° C | 39% | 1010.2 hPa | 0 mm | - | - | - |
| 1778201830 | 21.11° C | 39% | 1010.2 hPa | 0 mm | - | - | - |
| 1778201528 | 21.11° C | 38% | 1010.2 hPa | 0 mm | - | - | - |
| 1778201227 | 21.67° C | 37% | 1010.2 hPa | 0 mm | - | - | - |
| 1778200926 | 21.67° C | 38% | 1010.2 hPa | 0 mm | - | - | - |
| 1778200625 | 22.22° C | 37% | 1010.2 hPa | 0 mm | - | - | - |
| 1778200323 | 22.22° C | 37% | 1010.2 hPa | 0 mm | - | - | - |
| 1778200022 | 21.67° C | 36% | 1010.2 hPa | 0 mm | - | - | - |
| 1778199721 | 21.67° C | 35% | 1010.2 hPa | 0 mm | - | - | - |
| 1778199420 | 22.78° C | 35% | 1010.2 hPa | 0 mm | - | - | - |
| 1778199119 | 22.22° C | 33% | 1010.5 hPa | 0 mm | - | - | - |
| 1778198817 | 22.22° C | 34% | 1010.5 hPa | 0 mm | - | - | - |
| 1778198516 | 22.22° C | 33% | 1010.5 hPa | 0 mm | - | - | - |
| 1778198215 | 22.22° C | 31% | 1010.5 hPa | 0 mm | - | - | - |
| 1778197914 | 22.22° C | 34% | 1010.5 hPa | 0 mm | - | - | - |
* Rain latest hour (hover to see other rain measurements)
** Current wind speed in m/s (hover to see current wind gust speed)